Voltar ao catálogo

STARLINK-38093

AtivoComunicaçõesSSO
NORAD 69980·PAYLOAD·🇺🇸 United States

Lançado Jul 11, 2026 de Vandenberg Space Force Base

Loading…

Próximas Passagens (próximas 24 horas)

TLE

AtualizadoSource: CelesTrak SupGP

Época: Sep 15, 2026, 04:20 UTC

1 69980C 26159F   26258.18104167 -.02702300  00000+0 -31550-1 0  2584
2 69980  97.2847 100.0631 0001933 101.8286 165.7892 15.63019544    11

Acompanhe STARLINK-38093 em tempo real com AllMySat

Download on the App Store